EN

Hourly Weather Nyzhni Vorota

Today, 18 May, Tuesday

Time Temperature Precipitation Wind Pressure Humidity
00:00 +12°C° 0.7 mm 1 mps 706 mmHg 100%
01:00 +12°C° 4.7 mm 1 mps 706 mmHg 100%
02:00 +10°C° 1.9 mm 3 mps 706 mmHg 100%
03:00 +10°C° 2 mm 4 mps 705 mmHg 100%
04:00 +10°C° 0.8 mm 3 mps 705 mmHg 100%
05:00 +10°C° 0 mm 2 mps 705 mmHg 99%
06:00 +11°C° 0 mm 1 mps 704 mmHg 100%
07:00 +9°C° 0 mm 2 mps 705 mmHg 100%
08:00 +11°C° 0 mm 1 mps 705 mmHg 100%
09:00 +12°C° 0 mm 1 mps 705 mmHg 100%
10:00 +11°C° 0.2 mm 1 mps 706 mmHg 100%
11:00 +12°C° 0.3 mm 1 mps 706 mmHg 100%
12:00 +13°C° 0.7 mm 1 mps 706 mmHg 100%
13:00 +13°C° 2.8 mm 2 mps 706 mmHg 100%
14:00 +13°C° 0.5 mm 3 mps 706 mmHg 96%
15:00 +13°C° 0.6 mm 6 mps 707 mmHg 97%
16:00 +12°C° 0 mm 5 mps 707 mmHg 99%
17:00 +13°C° 0.1 mm 5 mps 707 mmHg 96%
18:00 +13°C° 0 mm 4 mps 708 mmHg 96%
19:00 +12°C° 0 mm 3 mps 708 mmHg 98%
20:00 +12°C° 0 mm 3 mps 708 mmHg 97%
21:00 +11°C° 0 mm 3 mps 709 mmHg 98%
22:00 +11°C° 0 mm 3 mps 709 mmHg 99%
23:00 +11°C° 0 mm 3 mps 709 mmHg 100%

Tomorrow, 19 May, Wednesday

Time Temperature Precipitation Wind Pressure Humidity
00:00 +11°C° 0 mm 3 mps 710 mmHg 100%
01:00 +10°C° 0 mm 3 mps 710 mmHg 100%
02:00 +10°C° 0 mm 3 mps 710 mmHg 100%
03:00 +10°C° 0 mm 2 mps 710 mmHg 100%
04:00 +9°C° 0 mm 2 mps 710 mmHg 100%
05:00 +9°C° 0 mm 2 mps 710 mmHg 100%
06:00 +9°C° 0 mm 2 mps 710 mmHg 100%
07:00 +10°C° 0 mm 2 mps 711 mmHg 100%
08:00 +12°C° 0 mm 2 mps 711 mmHg 97%
09:00 +13°C° 0 mm 2 mps 711 mmHg 96%
10:00 +14°C° 0 mm 2 mps 712 mmHg 96%
11:00 +14°C° 0 mm 2 mps 712 mmHg 95%
12:00 +15°C° 0 mm 2 mps 712 mmHg 96%
13:00 +15°C° 1.3 mm 2 mps 712 mmHg 99%
14:00 +15°C° 1 mm 2 mps 711 mmHg 95%
15:00 +14°C° 1.5 mm 2 mps 711 mmHg 98%
16:00 +14°C° 1.4 mm 3 mps 711 mmHg 95%
17:00 +15°C° 0.1 mm 2 mps 711 mmHg 84%
18:00 +16°C° 0 mm 2 mps 711 mmHg 90%
19:00 +15°C° 0 mm 2 mps 710 mmHg 92%
20:00 +13°C° 0 mm 3 mps 711 mmHg 95%
21:00 +13°C° 1.3 mm 2 mps 711 mmHg 100%
22:00 +12°C° 0.1 mm 3 mps 710 mmHg 99%
23:00 +11°C° 0.1 mm 3 mps 711 mmHg 99%

Day after tomorrow, 20 May, Thursday

Time Temperature Precipitation Wind Pressure Humidity
00:00 +12°C° 2.1 mm 2 mps 710 mmHg 100%
01:00 +11°C° 0.4 mm 4 mps 709 mmHg 99%
02:00 +11°C° 0.1 mm 4 mps 709 mmHg 99%
03:00 +11°C° 0.3 mm 4 mps 709 mmHg 100%
04:00 +9°C° 0.2 mm 6 mps 708 mmHg 100%
05:00 +9°C° 0.1 mm 6 mps 709 mmHg 100%
06:00 +9°C° 0.2 mm 7 mps 708 mmHg 100%
07:00 +9°C° 0 mm 5 mps 710 mmHg 100%
08:00 +10°C° 0 mm 4 mps 709 mmHg 100%
09:00 +11°C° 0 mm 4 mps 710 mmHg 100%
10:00 +10°C° 0 mm 5 mps 710 mmHg 100%
11:00 +9°C° 0 mm 6 mps 710 mmHg 100%
12:00 +10°C° 0 mm 6 mps 710 mmHg 100%
13:00 +10°C° 0 mm 6 mps 710 mmHg 100%
14:00 +12°C° 0 mm 7 mps 710 mmHg 96%
15:00 +12°C° 0 mm 8 mps 710 mmHg 93%
16:00 +12°C° 0 mm 8 mps 710 mmHg 95%
17:00 +12°C° 0 mm 8 mps 710 mmHg 95%
18:00 +11°C° 0 mm 9 mps 711 mmHg 97%
19:00 +10°C° 0 mm 9 mps 711 mmHg 98%
20:00 +10°C° 0 mm 8 mps 712 mmHg 100%
21:00 +10°C° 0 mm 8 mps 712 mmHg 100%
22:00 +10°C° 0 mm 8 mps 712 mmHg 98%
23:00 +9°C° 0 mm 7 mps 713 mmHg 97%

21 May, Friday

Time Temperature Precipitation Wind Pressure Humidity
00:00 +9°C° 0 mm 7 mps 713 mmHg 99%
01:00 +9°C° 0 mm 6 mps 714 mmHg 99%
02:00 +8°C° 0 mm 6 mps 714 mmHg 97%
03:00 +8°C° 0 mm 6 mps 715 mmHg 97%
04:00 +7°C° 0 mm 5 mps 715 mmHg 99%
05:00 +7°C° 0 mm 6 mps 716 mmHg 100%
06:00 +7°C° 0 mm 5 mps 716 mmHg 100%
07:00 +7°C° 0 mm 5 mps 717 mmHg 100%
08:00 +7°C° 0 mm 5 mps 717 mmHg 99%
09:00 +9°C° 0 mm 5 mps 718 mmHg 97%
10:00 +10°C° 0 mm 5 mps 719 mmHg 94%
11:00 +13°C° 0 mm 5 mps 719 mmHg 88%
12:00 +14°C° 0 mm 5 mps 719 mmHg 85%
13:00 +14°C° 0 mm 5 mps 720 mmHg 84%
14:00 +15°C° 0 mm 4 mps 720 mmHg 82%
15:00 +15°C° 0 mm 4 mps 720 mmHg 80%
16:00 +15°C° 0 mm 4 mps 720 mmHg 80%
17:00 +14°C° 0 mm 4 mps 720 mmHg 80%
18:00 +14°C° 0 mm 3 mps 719 mmHg 82%
19:00 +13°C° 0 mm 3 mps 719 mmHg 86%
20:00 +13°C° 0 mm 2 mps 720 mmHg 90%
21:00 +12°C° 0 mm 2 mps 719 mmHg 91%
22:00 +12°C° 0 mm 1 mps 719 mmHg 91%
23:00 +11°C° 0 mm 1 mps 719 mmHg 90%

22 May, Saturday

Time Temperature Precipitation Wind Pressure Humidity
00:00 +11°C° 0 mm 1 mps 719 mmHg 86%
01:00 +11°C° 0 mm 1 mps 719 mmHg 80%
02:00 +11°C° 0 mm 1 mps 719 mmHg 76%
03:00 +11°C° 0 mm 1 mps 719 mmHg 73%
04:00 +10°C° 0 mm 1 mps 718 mmHg 71%
05:00 +9°C° 0 mm 0 mps 718 mmHg 70%
06:00 +10°C° 0 mm 1 mps 718 mmHg 71%
07:00 +10°C° 0 mm 0 mps 719 mmHg 81%
08:00 +12°C° 0 mm 0 mps 719 mmHg 82%
09:00 +14°C° 0 mm 2 mps 719 mmHg 87%
10:00 +14°C° 0 mm 3 mps 719 mmHg 87%
11:00 +15°C° 0 mm 4 mps 719 mmHg 86%
12:00 +17°C° 0 mm 4 mps 720 mmHg 85%
13:00 +17°C° 0 mm 4 mps 720 mmHg 81%
14:00 +17°C° 0 mm 4 mps 719 mmHg 77%
15:00 +18°C° 0 mm 4 mps 719 mmHg 77%
16:00 +18°C° 0 mm 4 mps 719 mmHg 77%
17:00 +17°C° 0 mm 4 mps 719 mmHg 76%
18:00 +17°C° 0 mm 3 mps 718 mmHg 83%
19:00 +16°C° 0 mm 3 mps 718 mmHg 86%
20:00 +15°C° 0 mm 2 mps 718 mmHg 91%
21:00 +14°C° 0 mm 2 mps 717 mmHg 86%
22:00 +14°C° 0 mm 1 mps 717 mmHg 82%
23:00 +14°C° 0 mm 1 mps 718 mmHg 85%

23 May, Sunday

Time Temperature Precipitation Wind Pressure Humidity
00:00 +13°C° 0 mm 2 mps 718 mmHg 91%
01:00 +13°C° 0 mm 2 mps 717 mmHg 94%
02:00 +13°C° 0 mm 2 mps 718 mmHg 96%
03:00 +13°C° 0 mm 2 mps 717 mmHg 97%
04:00 +13°C° 0 mm 2 mps 717 mmHg 98%
05:00 +12°C° 0 mm 2 mps 717 mmHg 98%
06:00 +13°C° 0 mm 2 mps 717 mmHg 100%
07:00 +13°C° 0 mm 2 mps 718 mmHg 100%
08:00 +13°C° 0 mm 1 mps 718 mmHg 100%
09:00 +14°C° 0 mm 1 mps 718 mmHg 100%
10:00 +15°C° 0 mm 1 mps 719 mmHg 100%
11:00 +18°C° 0 mm 1 mps 719 mmHg 98%
12:00 +18°C° 0 mm 3 mps 719 mmHg 92%
13:00 +18°C° 0.3 mm 4 mps 719 mmHg 93%
14:00 +18°C° 0.4 mm 4 mps 719 mmHg 92%
15:00 +17°C° 0.8 mm 3 mps 719 mmHg 99%
16:00 +18°C° 1.4 mm 1 mps 718 mmHg 93%
17:00 +19°C° 0 mm 1 mps 718 mmHg 90%
18:00 +18°C° 0 mm 2 mps 718 mmHg 94%
19:00 +19°C° 0 mm 1 mps 718 mmHg 96%
20:00 +18°C° 0 mm 1 mps 718 mmHg 100%
21:00 +16°C° 0 mm 1 mps 718 mmHg 100%
22:00 +15°C° 0 mm 2 mps 717 mmHg 100%
23:00 +15°C° 0 mm 2 mps 717 mmHg 100%
Show more

We Need Your Consent

Meteoprog and our Service Providers may store and access personal data such as cookies, device identifiers or other similar technologies on your device and process such data to personalise content and ads, as well as provide social media features and to analyse the traffic.

  • Store and/or access information on your device

    Cookies, device identifiers or other information can be stored or accessed on your device for the purposes indicated above.

  • Personalised ads and content, ad and content measurement, audience insights, and products development

    Ads and content can be personalised based on a profile. More data can be added to better personalise ads and content. Ad and content performance can be measured. Insights about the audience who saw the ads and content can be derived. Such data can be used to develop or improve user’s experience, systems and software.

By clicking ‘I Agree’ you will allow the use of indicated cookies, device identifiers, web beacons or other similar technologies. Your settings can be changed in the browser on your device.

For certain purposes, legitimate interests may be relied on, rather than consent. You can read more about this in our Privacy and Cookie Policy.